{"data":{"norad_id":52093,"intl_designator":"2022-029F","name":"STARLINK-3673","alt_names":[],"object_type":"PAYLOAD","status":"ACTIVE","operator":null,"country":"US","launch_date":"2022-03-19","launch_site_code":"AFETR","launch_vehicle":null,"mission":null,"orbit_class":"UNKNOWN","rcs_meters":null,"size_class":null,"mass_kg":null,"dimensions":null,"purposes":["comms"],"wikipedia_slug":null,"has_3d_model":false,"image_url":null,"decayed_at":null,"tle_current":{"epoch":"2026-05-25T04:21:23.696064Z","epoch_age_seconds":56041,"freshness":"FRESH","line1":"1 52093U 22029F   26145.18152426 -.00000309  00000+0 -12925-5 0  9998","line2":"2 52093  53.2151 105.7458 0001523  80.7452 279.3713 15.08834632232206","mean_motion":15.08834632,"eccentricity":0.0001523,"inclination_deg":53.2151,"raan_deg":105.7458,"arg_perigee_deg":80.7452,"mean_anomaly_deg":279.3713,"bstar":-1.2925e-6,"rev_number":23220,"period_min":95.437894217158,"perigee_km":538.70620115909,"apogee_km":540.81339252341,"semimajor_km":6917.8967968412,"source":"CELESTRAK","updated_at":"2026-05-25T13:38:17.000809Z"}}}